Volver al catálogo

DMSP 5D-2 F13 DEB

ActivoSSO
NORAD 42282·DEBRIS·🇺🇸 United States

Lanzado Mar 24, 1995 desde Vandenberg Space Force Base

Loading…

Próximos Pases (próximas 24 horas)

TLE

ActualizadoSource: Space-Track

Época: Sep 12, 2026, 00:27 UTC

1 42282U 95015GY  26255.01939965  .00002537  00000-0  97130-3 0  9990
2 42282  98.9340 278.8740 0031767  59.7944 300.6378 14.31262233587779

Sigue DMSP 5D-2 F13 DEB en tiempo real con AllMySat

Download on the App Store